LEMUR-2-SOKOLSKY (41872 NORAD) Tracking and Keplerian Element Data

This shows tracking and keplerian element data for the satellite.

Feedback or suggestion? Click here.




ElementValue
Catalog41872
NameLEMUR-2-SOKOLSKY
Epoch Orbit35358
Epoch Day85.18003194
Epoch Year2023
RAAN49.4611
Inclination51.6529
Eccentricity0.0008067
Argument of Perigee121.1475
Mean Anonmoly239.0323
Mean Motion15.89212442
Decay Rate0.00746805
L11 41872U 16062D 23085.18003194 .00746805 23043-3 25392-2 0 9999
L22 41872 51.6529 49.4611 0008067 121.1475 239.0323 15.89212442353583



Live tracking and technical data element details for LEMUR-2-SOKOLSKY (NORAD 41872). LEMUR-2-SOKOLSKY can be tracked NOW for your location showing map with azimuth and elevation plus other details from your city location.







IsCatalogInMostPopularTable: catalog: 41872, numindb: 281
Update: records affected: 1



GetName: 41872 LEMUR-2-SOKOLSKY

Hit Count: updated at: Thu, 15 May 2025 19:53:29 GMT